| time (UTC) | temp C | wind direction | speed KPH | gust KPH | rain 1hr cm | rain 24hr cm | rain mn cm | humidity % | barometer mb |
| 20260507032650 | 12 | 229 | 0.0 | 16.1 | 0.00 | 0.00 | 0.00 | 64 | 1014.3 |
| 20260507031824 | 12 | 229 | 0.0 | 1.6 | 0.00 | 0.00 | 0.00 | 62 | 1014.5 |
| 20260507031151 | 13 | 229 | 0.0 | 16.1 | 0.00 | 0.00 | 0.00 | 62 | 1014.2 |
| 20260507030322 | 13 | 223 | 0.0 | 1.6 | 0.00 | 0.00 | 0.00 | 61 | 1014.1 |
| 20260507025651 | 13 | 216 | 0.0 | 16.1 | 0.00 | 0.00 | 0.00 | 60 | 1013.9 |
| 20260507024822 | 13 | 218 | 1.6 | 4.8 | 0.00 | 0.00 | 0.00 | 61 | 1014.0 |
| 20260507024150 | 13 | 201 | 0.0 | 16.1 | 0.00 | 0.00 | 0.00 | 62 | 1014.0 |
| 20260507023340 | 13 | 220 | 0.0 | 1.6 | 0.00 | 0.00 | 0.00 | 62 | 1013.9 |
| 20260507022651 | 13 | 199 | 0.0 | 16.1 | 0.00 | 0.00 | 0.00 | 61 | 1013.8 |
| 20260507021824 | 13 | 196 | 0.0 | 1.6 | 0.00 | 0.00 | 0.00 | 60 | 1013.7 |
| 20260507021150 | 13 | 201 | 0.0 | 16.1 | 0.00 | 0.00 | 0.00 | 60 | 1013.6 |
| 20260507020316 | 14 | 194 | 0.0 | 4.8 | 0.00 | 0.00 | 0.00 | 59 | 1013.6 |
| 20260507015651 | 15 | 212 | 3.2 | 16.1 | 0.00 | 0.00 | 0.00 | 58 | 1013.3 |
| 20260507014814 | 15 | 212 | 0.0 | 4.8 | 0.00 | 0.00 | 0.00 | 56 | 1013.1 |
| 20260507014151 | 15 | 210 | 0.0 | 16.1 | 0.00 | 0.00 | 0.00 | 56 | 1013.0 |
| 20260507013331 | 15 | 225 | 0.0 | 1.6 | 0.00 | 0.00 | 0.00 | 55 | 1013.0 |
| 20260507012651 | 16 | 184 | 0.0 | 16.1 | 0.00 | 0.00 | 0.00 | 55 | 1012.9 |
| 20260507011830 | 16 | 208 | 0.0 | 3.2 | 0.00 | 0.00 | 0.00 | 54 | 1013.0 |
| 20260507011150 | 16 | 208 | 0.0 | 16.1 | 0.00 | 0.00 | 0.00 | 53 | 1012.8 |
| 20260507010322 | 16 | 180 | 3.2 | 9.7 | 0.00 | 0.00 | 0.00 | 53 | 1012.9 |
| 20260507005652 | 16 | 202 | 0.0 | 16.1 | 0.00 | 0.00 | 0.00 | 53 | 1012.7 |
| 20260507004823 | 16 | 187 | 0.0 | 4.8 | 0.00 | 0.00 | 0.00 | 52 | 1012.7 |
| 20260507004151 | 16 | 190 | 0.0 | 16.1 | 0.00 | 0.00 | 0.00 | 51 | 1012.6 |
| 20260507003319 | 16 | 190 | 1.6 | 8.0 | 0.00 | 0.00 | 0.00 | 51 | 1012.6 |
| 20260507002650 | 17 | 218 | 1.6 | 16.1 | 0.00 | 0.00 | 0.00 | 50 | 1012.5 |
| 20260507001813 | 17 | 186 | 1.6 | 6.4 | 0.00 | 0.00 | 0.00 | 49 | 1012.5 |
| 20260507001151 | 17 | 202 | 0.0 | 16.1 | 0.00 | 0.00 | 0.00 | 49 | 1012.2 |
| 20260507000331 | 17 | 173 | 3.2 | 9.7 | 0.00 | 0.00 | 0.00 | 49 | 1012.3 |
| 20260506235652 | 18 | 220 | 4.8 | 16.1 | 0.00 | 0.00 | 0.00 | 48 | 1012.1 |
| 20260506234814 | 18 | 198 | 1.6 | 9.7 | 0.00 | 0.00 | 0.00 | 49 | 1012.1 |
| 20260506234151 | 18 | 201 | 1.6 | 16.1 | 0.00 | 0.00 | 0.00 | 50 | 1012.0 |
| 20260506233331 | 17 | 220 | 1.6 | 9.7 | 0.00 | 0.00 | 0.00 | 49 | 1012.0 |
| 20260506232650 | 17 | 196 | 0.0 | 16.1 | 0.00 | 0.00 | 0.00 | 49 | 1011.9 |
| 20260506231852 | 18 | 211 | 1.6 | 11.3 | 0.00 | 0.00 | 0.00 | 49 | 1012.0 |
| 20260506231151 | 18 | 194 | 3.2 | 16.1 | 0.00 | 0.00 | 0.00 | 48 | 1011.9 |
| 20260506230331 | 18 | 298 | 3.2 | 12.9 | 0.00 | 0.00 | 0.00 | 48 | 1011.9 |
| 20260506225650 | 18 | 214 | 6.4 | 16.1 | 0.00 | 0.00 | 0.00 | 50 | 1011.8 |
| 20260506224826 | 18 | 293 | 4.8 | 16.1 | 0.00 | 0.00 | 0.00 | 49 | 1011.8 |
| 20260506224152 | 18 | 89 | 0.0 | 16.1 | 0.00 | 0.00 | 0.00 | 49 | 1011.6 |
| 20260506223345 | 18 | 215 | 1.6 | 9.7 | 0.00 | 0.00 | 0.00 | 49 | 1011.5 |
| 20260506222651 | 18 | 186 | 0.0 | 16.1 | 0.00 | 0.00 | 0.00 | 51 | 1011.4 |
| 20260506221819 | 17 | 220 | 3.2 | 16.1 | 0.00 | 0.00 | 0.00 | 50 | 1011.6 |
| 20260506221150 | 17 | 214 | 8.0 | 16.1 | 0.00 | 0.00 | 0.00 | 50 | 1011.4 |
| 20260506220323 | 17 | 227 | 3.2 | 9.7 | 0.00 | 0.00 | 0.00 | 50 | 1011.4 |
| 20260506215651 | 17 | 272 | 0.0 | 16.1 | 0.00 | 0.00 | 0.00 | 51 | 1011.4 |
| 20260506214843 | 17 | 251 | 8.0 | 14.5 | 0.00 | 0.00 | 0.00 | 51 | 1011.6 |
| 20260506214151 | 17 | 144 | 1.6 | 16.1 | 0.00 | 0.00 | 0.00 | 52 | 1011.6 |
| 20260506213322 | 17 | 206 | 3.2 | 14.5 | 0.00 | 0.00 | 0.00 | 52 | 1011.7 |
| 20260506212650 | 17 | 215 | 3.2 | 16.1 | 0.00 | 0.00 | 0.00 | 52 | 1011.6 |
| 20260506211824 | 17 | 209 | 4.8 | 9.7 | 0.00 | 0.00 | 0.00 | 53 | 1011.8 |
| 20260506211151 | 17 | 190 | 0.0 | 16.1 | 0.00 | 0.00 | 0.00 | 52 | 1011.9 |
| 20260506210323 | 17 | 194 | 0.0 | 12.9 | 0.00 | 0.00 | 0.00 | 54 | 1011.8 |
| 20260506205650 | 17 | 162 | 6.4 | 16.1 | 0.00 | 0.00 | 0.00 | 55 | 1011.9 |
| 20260506204821 | 17 | 279 | 3.2 | 16.1 | 0.00 | 0.00 | 0.00 | 54 | 1012.0 |
| 20260506204152 | 17 | 206 | 8.0 | 16.1 | 0.00 | 0.00 | 0.00 | 54 | 1012.1 |
| 20260506203320 | 16 | 137 | 3.2 | 17.7 | 0.00 | 0.00 | 0.00 | 55 | 1012.1 |
| 20260506202650 | 17 | 167 | 1.6 | 16.1 | 0.00 | 0.00 | 0.00 | 54 | 1012.2 |
| 20260506201824 | 17 | 187 | 3.2 | 14.5 | 0.00 | 0.00 | 0.00 | 55 | 1012.1 |
| 20260506201151 | 17 | 110 | 4.8 | 16.1 | 0.00 | 0.00 | 0.00 | 55 | 1012.1 |
| 20260506200324 | 16 | 276 | 1.6 | 16.1 | 0.00 | 0.00 | 0.00 | 55 | 1012.2 |
| 20260506195650 | 17 | 131 | 4.8 | 16.1 | 0.00 | 0.00 | 0.00 | 53 | 1012.3 |
| 20260506194823 | 17 | 103 | 3.2 | 14.5 | 0.00 | 0.00 | 0.00 | 53 | 1012.1 |
| 20260506194151 | 17 | 232 | 8.0 | 16.1 | 0.00 | 0.00 | 0.00 | 51 | 1012.1 |
| 20260506193327 | 17 | 274 | 6.4 | 12.9 | 0.00 | 0.00 | 0.00 | 51 | 1012.1 |
| 20260506192651 | 17 | 155 | 0.0 | 16.1 | 0.00 | 0.00 | 0.00 | 51 | 1012.3 |
| 20260506191825 | 17 | 171 | 9.7 | 16.1 | 0.00 | 0.00 | 0.00 | 50 | 1012.4 |
| 20260506191150 | 17 | 165 | 4.8 | 16.1 | 0.00 | 0.00 | 0.00 | 50 | 1012.5 |
| 20260506190324 | 17 | 201 | 4.8 | 14.5 | 0.00 | 0.00 | 0.00 | 50 | 1012.4 |
| 20260506185652 | 17 | 202 | 6.4 | 16.1 | 0.00 | 0.00 | 0.00 | 51 | 1012.4 |
| 20260506184827 | 17 | 202 | 6.4 | 19.3 | 0.00 | 0.00 | 0.00 | 50 | 1012.5 |
| 20260506184150 | 17 | 190 | 8.0 | 16.1 | 0.00 | 0.00 | 0.00 | 51 | 1012.7 |
| 20260506183322 | 17 | 205 | 6.4 | 16.1 | 0.00 | 0.00 | 0.00 | 51 | 1012.7 |
| 20260506182650 | 17 | 270 | 8.0 | 16.1 | 0.00 | 0.00 | 0.00 | 52 | 1012.7 |
| 20260506181817 | 17 | 212 | 6.4 | 17.7 | 0.00 | 0.00 | 0.00 | 51 | 1012.8 |
| 20260506181151 | 16 | 299 | 3.2 | 16.1 | 0.00 | 0.00 | 0.00 | 52 | 1013.0 |
| 20260506180318 | 16 | 209 | 6.4 | 12.9 | 0.00 | 0.00 | 0.00 | 51 | 1013.1 |
| 20260506175650 | 16 | 208 | 0.0 | 16.1 | 0.00 | 0.00 | 0.00 | 53 | 1013.3 |
| 20260506174851 | 16 | 312 | 8.0 | 16.1 | 0.00 | 0.00 | 0.00 | 52 | 1013.3 |
| 20260506174152 | 15 | 218 | 8.0 | 16.1 | 0.00 | 0.00 | 0.00 | 54 | 1013.5 |
| 20260506173329 | 15 | 229 | 8.0 | 16.1 | 0.00 | 0.00 | 0.00 | 54 | 1013.3 |
| 20260506172651 | 15 | 195 | 9.7 | 16.1 | 0.00 | 0.00 | 0.00 | 54 | 1013.3 |
| 20260506171821 | 15 | 199 | 11.3 | 20.9 | 0.00 | 0.00 | 0.00 | 53 | 1013.4 |
| 20260506171150 | 15 | 203 | 8.0 | 16.1 | 0.00 | 0.00 | 0.00 | 55 | 1013.4 |
| 20260506170323 | 15 | 158 | 11.3 | 24.1 | 0.00 | 0.00 | 0.00 | 53 | 1013.5 |
| 20260506165651 | 15 | 212 | 9.7 | 16.1 | 0.00 | 0.00 | 0.00 | 54 | 1013.6 |
| 20260506164817 | 14 | 215 | 8.0 | 20.9 | 0.00 | 0.00 | 0.00 | 56 | 1013.5 |
| 20260506164151 | 14 | 179 | 17.7 | 16.1 | 0.00 | 0.00 | 0.00 | 55 | 1013.8 |
| 20260506163316 | 13 | 178 | 8.0 | 19.3 | 0.00 | 0.00 | 0.00 | 58 | 1013.7 |
| 20260506162650 | 13 | 213 | 8.0 | 16.1 | 0.00 | 0.00 | 0.00 | 59 | 1013.8 |
| 20260506161819 | 13 | 200 | 4.8 | 17.7 | 0.00 | 0.00 | 0.00 | 60 | 1013.8 |
| 20260506161151 | 13 | 205 | 3.2 | 16.1 | 0.00 | 0.00 | 0.00 | 60 | 1013.9 |
| 20260506160318 | 13 | 300 | 11.3 | 19.3 | 0.00 | 0.00 | 0.00 | 61 | 1013.8 |
| 20260506155650 | 13 | 217 | 6.4 | 16.1 | 0.00 | 0.00 | 0.00 | 62 | 1013.5 |
| 20260506154816 | 13 | 222 | 8.0 | 20.9 | 0.00 | 0.00 | 0.00 | 63 | 1013.6 |
| 20260506154152 | 13 | 226 | 3.2 | 16.1 | 0.00 | 0.00 | 0.00 | 65 | 1013.5 |
| 20260506153312 | 12 | 293 | 3.2 | 12.9 | 0.00 | 0.00 | 0.00 | 67 | 1013.4 |
| 20260506152651 | 12 | 220 | 9.7 | 16.1 | 0.00 | 0.00 | 0.00 | 68 | 1013.3 |
| 20260506151816 | 11 | 210 | 3.2 | 14.5 | 0.00 | 0.00 | 0.00 | 71 | 1013.3 |
| 20260506151150 | 11 | 190 | 0.0 | 16.1 | 0.00 | 0.00 | 0.00 | 71 | 1013.1 |
| 20260506150314 | 11 | 179 | 4.8 | 16.1 | 0.00 | 0.00 | 0.00 | 73 | 1013.1 |
| 20260506145651 | 11 | 201 | 9.7 | 16.1 | 0.00 | 0.00 | 0.00 | 72 | 1012.8 |
| 20260506144814 | 10 | 195 | 9.7 | 19.3 | 0.00 | 0.00 | 0.00 | 72 | 1012.7 |
| 20260506144150 | 11 | 220 | 9.7 | 16.1 | 0.00 | 0.00 | 0.00 | 72 | 1012.5 |
| 20260506143338 | 10 | 204 | 4.8 | 16.1 | 0.00 | 0.00 | 0.00 | 75 | 1012.5 |
| 20260506142650 | 10 | 154 | 1.6 | 16.1 | 0.00 | 0.00 | 0.00 | 74 | 1012.5 |
| 20260506141815 | 10 | 209 | 6.4 | 14.5 | 0.00 | 0.00 | 0.00 | 76 | 1012.5 |
| 20260506141151 | 10 | 212 | 4.8 | 16.1 | 0.00 | 0.00 | 0.00 | 78 | 1012.5 |
| 20260506140334 | 10 | 212 | 1.6 | 11.3 | 0.00 | 0.00 | 0.00 | 78 | 1012.7 |
| 20260506135650 | 9 | 214 | 4.8 | 16.1 | 0.00 | 0.00 | 0.00 | 78 | 1012.6 |
| 20260506134830 | 9 | 215 | 4.8 | 14.5 | 0.00 | 0.00 | 0.00 | 78 | 1013.0 |
| 20260506134150 | 9 | 208 | 1.6 | 16.1 | 0.00 | 0.00 | 0.00 | 79 | 1012.8 |
| 20260506133313 | 9 | 201 | 4.8 | 20.9 | 0.00 | 0.00 | 0.00 | 79 | 1012.7 |
| 20260506132650 | 9 | 198 | 1.6 | 16.1 | 0.00 | 0.00 | 0.00 | 80 | 1012.5 |
| 20260506131852 | 9 | 222 | 6.4 | 19.3 | 0.00 | 0.00 | 0.00 | 80 | 1012.6 |
| 20260506131151 | 8 | 114 | 0.0 | 16.1 | 0.00 | 0.00 | 0.00 | 81 | 1012.5 |
| 20260506130330 | 8 | 180 | 3.2 | 20.9 | 0.00 | 0.00 | 0.00 | 82 | 1012.5 |
| 20260506125650 | 8 | 140 | 3.2 | 16.1 | 0.00 | 0.00 | 0.00 | 82 | 1012.0 |
| 20260506124834 | 8 | 171 | 3.2 | 9.7 | 0.00 | 0.00 | 0.00 | 81 | 1012.4 |
| 20260506124151 | 8 | 78 | 0.0 | 16.1 | 0.00 | 0.00 | 0.00 | 81 | 1012.3 |
| 20260506123311 | 8 | 181 | 1.6 | 11.3 | 0.00 | 0.00 | 0.00 | 81 | 1012.2 |
| 20260506122651 | 8 | 107 | 0.0 | 16.1 | 0.00 | 0.00 | 0.00 | 81 | 1011.6 |
| 20260506121828 | 8 | 194 | 0.0 | 11.3 | 0.00 | 0.00 | 0.00 | 81 | 1011.8 |
| 20260506121151 | 8 | 150 | 0.0 | 16.1 | 0.00 | 0.00 | 0.00 | 81 | 1011.4 |
| 20260506120326 | 8 | 205 | 1.6 | 9.7 | 0.00 | 0.00 | 0.00 | 81 | 1011.7 |
| 20260506115651 | 8 | 170 | 1.6 | 16.1 | 0.00 | 0.00 | 0.00 | 81 | 1011.3 |
| 20260506114831 | 8 | 211 | 0.0 | 8.0 | 0.00 | 0.00 | 0.00 | 81 | 1011.5 |
| 20260506114150 | 8 | 152 | 1.6 | 16.1 | 0.00 | 0.00 | 0.00 | 81 | 1011.3 |
| 20260506113350 | 8 | 200 | 1.6 | 6.4 | 0.00 | 0.00 | 0.00 | 81 | 1011.2 |
| 20260506112650 | 8 | 212 | 0.0 | 16.1 | 0.00 | 0.00 | 0.00 | 81 | 1010.8 |
| 20260506111829 | 8 | 195 | 1.6 | 8.0 | 0.00 | 0.00 | 0.00 | 81 | 1011.2 |
| 20260506111151 | 8 | 2 | 0.0 | 16.1 | 0.00 | 0.00 | 0.00 | 81 | 1010.7 |
| 20260506110330 | 8 | 193 | 1.6 | 11.3 | 0.00 | 0.00 | 0.00 | 81 | 1011.4 |
| 20260506105650 | 8 | 121 | 0.0 | 16.1 | 0.00 | 0.00 | 0.00 | 81 | 1011.2 |
| 20260506104829 | 8 | 144 | 1.6 | 9.7 | 0.00 | 0.00 | 0.00 | 81 | 1011.7 |
| 20260506104151 | 8 | 182 | 3.2 | 16.1 | 0.00 | 0.00 | 0.00 | 80 | 1011.2 |
| 20260506103325 | 8 | 103 | 0.0 | 12.9 | 0.00 | 0.00 | 0.00 | 80 | 1011.2 |
| 20260506102651 | 8 | 217 | 0.0 | 16.1 | 0.00 | 0.00 | 0.00 | 79 | 1010.9 |
| 20260506101824 | 8 | 77 | 1.6 | 9.7 | 0.00 | 0.00 | 0.00 | 79 | 1011.4 |
| 20260506101150 | 8 | 114 | 3.2 | 16.1 | 0.00 | 0.00 | 0.00 | 79 | 1011.2 |
| 20260506100320 | 8 | 99 | 1.6 | 17.7 | 0.00 | 0.00 | 0.00 | 78 | 1011.4 |
| 20260506095651 | 8 | 134 | 0.0 | 16.1 | 0.00 | 0.00 | 0.00 | 78 | 1010.8 |
| 20260506094818 | 8 | 170 | 0.0 | 6.4 | 0.00 | 0.00 | 0.00 | 77 | 1011.1 |
| 20260506094151 | 8 | 225 | 0.0 | 16.1 | 0.00 | 0.00 | 0.00 | 77 | 1010.5 |
| 20260506093316 | 8 | 218 | 1.6 | 11.3 | 0.00 | 0.00 | 0.00 | 77 | 1010.7 |
| 20260506092651 | 8 | 220 | 1.6 | 16.1 | 0.00 | 0.00 | 0.00 | 77 | 1010.3 |
| 20260506091818 | 8 | 203 | 0.0 | 12.9 | 0.00 | 0.00 | 0.00 | 77 | 1010.5 |
| 20260506091150 | 8 | 200 | 3.2 | 16.1 | 0.00 | 0.00 | 0.00 | 77 | 1010.2 |
| 20260506090316 | 8 | 208 | 1.6 | 8.0 | 0.00 | 0.00 | 0.00 | 77 | 1010.3 |
| 20260506085650 | 8 | 255 | 0.0 | 16.1 | 0.00 | 0.00 | 0.00 | 77 | 1009.9 |
| 20260506084825 | 8 | 120 | 3.2 | 11.3 | 0.00 | 0.00 | 0.00 | 78 | 1010.2 |
| 20260506084151 | 8 | 202 | 0.0 | 16.1 | 0.00 | 0.00 | 0.00 | 77 | 1009.6 |
| 20260506083329 | 8 | 89 | 1.6 | 9.7 | 0.00 | 0.00 | 0.00 | 78 | 1009.7 |
| 20260506082651 | 8 | 203 | 0.0 | 16.1 | 0.00 | 0.00 | 0.00 | 77 | 1009.1 |
| 20260506081820 | 8 | 213 | 0.0 | 6.4 | 0.00 | 0.00 | 0.00 | 77 | 1009.6 |
| 20260506081150 | 8 | 187 | 0.0 | 16.1 | 0.00 | 0.00 | 0.00 | 77 | 1008.7 |
| 20260506080320 | 8 | 237 | 1.6 | 9.7 | 0.00 | 0.00 | 0.00 | 77 | 1009.0 |
| 20260506073312 | 9 | 201 | 0.0 | 6.4 | 0.00 | 0.00 | 0.00 | 75 | 1008.4 |
| 20260506072651 | 8 | 196 | 0.0 | 16.1 | 0.00 | 0.00 | 0.00 | 75 | 1008.0 |
| 20260506071827 | 8 | 202 | 0.0 | 6.4 | 0.00 | 0.00 | 0.00 | 75 | 1009.0 |
| 20260506071151 | 8 | 192 | 0.0 | 16.1 | 0.00 | 0.00 | 0.00 | 75 | 1008.3 |
| 20260506070328 | 9 | 210 | 0.0 | 9.7 | 0.00 | 0.00 | 0.00 | 75 | 1008.9 |
| 20260506061830 | 9 | 239 | 1.6 | 8.0 | 0.00 | 0.00 | 0.00 | 75 | 1009.0 |
| 20260506061151 | 9 | 202 | 0.0 | 16.1 | 0.00 | 0.00 | 0.00 | 75 | 1008.3 |
| 20260506060320 | 9 | 108 | 1.6 | 8.0 | 0.00 | 0.00 | 0.00 | 75 | 1008.9 |
| 20260506051150 | 9 | 181 | 3.2 | 16.1 | 0.00 | 0.00 | 0.00 | 78 | 1007.9 |
| 20260506050349 | 9 | 213 | 1.6 | 8.0 | 0.00 | 0.00 | 0.00 | 79 | 1008.6 |
| 20260506044825 | 9 | 207 | 3.2 | 8.0 | 0.00 | 0.00 | 0.00 | 79 | 1008.8 |
| 20260506044151 | 9 | 199 | 1.6 | 16.1 | 0.00 | 0.00 | 0.00 | 80 | 1008.2 |
| 20260506043324 | 9 | 251 | 3.2 | 9.7 | 0.00 | 0.00 | 0.00 | 80 | 1008.9 |
| 20260506042650 | 9 | 201 | 4.8 | 16.1 | 0.00 | 0.00 | 0.00 | 80 | 1007.9 |
| 20260506041839 | 9 | 219 | 3.2 | 9.7 | 0.00 | 0.00 | 0.00 | 81 | 1008.8 |
| 20260506041151 | 9 | 199 | 3.2 | 16.1 | 0.00 | 0.00 | 0.00 | 82 | 1007.9 |
| 20260506040314 | 9 | 202 | 1.6 | 14.5 | 0.00 | 0.00 | 0.00 | 82 | 1009.0 |
| 20260506035651 | 9 | 108 | 3.2 | 16.1 | 0.00 | 0.00 | 0.00 | 82 | 1008.0 |
| 20260506034840 | 9 | 194 | 1.6 | 16.1 | 0.00 | 0.00 | 0.00 | 83 | 1008.8 |
| 20260506034150 | 9 | 239 | 1.6 | 16.1 | 0.00 | 0.00 | 0.00 | 83 | 1007.9 |
| 20260506033336 | 9 | 197 | 1.6 | 12.9 | 0.00 | 0.00 | 0.00 | 83 | 1008.6 |